QPF
0.00 0.00 0.00 0.00 0.00 0.00 0.01 0.01 0.01 0.02 0.01 0.00 0.00 0.00 0.00 0.00 0.01 0.02 0.01 0.00 0.00 0.02 0.04 0.05 0.04 0.03 0.03 0.03 0.03 0.04 0.06 0.07 0.09 0.09 0.11 0.10 0.07 0.05 0.04 0.06 0.07 0.06 0.08 0.07 0.06 0.07 0.06 0.05 0.04
0.00 0.00 0.00 0.00 0.00 0.01 0.01 0.01 0.01 0.01 0.00 0.00 0.00 0.00 0.00 0.00 0.00 0.00 0.00 0.00 0.00 0.03 0.06 0.06 0.05 0.04 0.03 0.03 0.05 0.05 0.07 0.08 0.08 0.07 0.09 0.10 0.09 0.07 0.06 0.06 0.07 0.09 0.11 0.09 0.07 0.07 0.08 0.07 0.06
0.00 0.00 0.00 0.00 0.01 0.01 0.01 0.01 0.01 0.00 0.00 0.00 0.00 0.00 0.00 0.00 0.00 0.00 0.00 0.00 0.01 0.04 0.09 0.11 0.08 0.06 0.04 0.04 0.05 0.07 0.07 0.07 0.06 0.06 0.07 0.09 0.14 0.15 0.09 0.06 0.05 0.06 0.08 0.09 0.10 0.10 0.09 0.09 0.07
0.00 0.00 0.00 0.00 0.00 0.01 0.01 0.00 0.00 0.00 0.00 0.00 0.00 0.00 0.00 0.00 0.00 0.00 0.00 0.00 0.01 0.02 0.04 0.04 0.03 0.02 0.03 0.04 0.05 0.06 0.08 0.06 0.05 0.06 0.08 0.09 0.08 0.09 0.07 0.05 0.05 0.05 0.06 0.08 0.08 0.09 0.10 0.10 0.09
0.00 0.00 0.00 0.00 0.00 0.01 0.00 0.00 0.00 0.00 0.00 0.00 0.00 0.00 0.00 0.01 0.00 0.01 0.00 0.00 0.01 0.02 0.03 0.03 0.02 0.01 0.02 0.03 0.04 0.05 0.06 0.05 0.04 0.05 0.06 0.06 0.06 0.06 0.07 0.07 0.06 0.06 0.07 0.08 0.09 0.09 0.09 0.11 0.13
0.00 0.00 0.00 0.00 0.00 0.00 0.00 0.00 0.00 0.00 0.00 0.00 0.00 0.00 0.00 0.01 0.01 0.00 0.01 0.01 0.01 0.02 0.02 0.02 0.02 0.02 0.02 0.02 0.04 0.05 0.06 0.04 0.04 0.04 0.04 0.04 0.05 0.05 0.06 0.08 0.10 0.08 0.08 0.08 0.09 0.08 0.08 0.09 0.11
0.00 0.00 0.00 0.00 0.00 0.00 0.00 0.00 0.00 0.00 0.00 0.00 0.00 0.00 0.00 0.01 0.01 0.01 0.01 0.01 0.01 0.02 0.03 0.02 0.02 0.02 0.02 0.03 0.04 0.06 0.07 0.05 0.04 0.04 0.03 0.05 0.07 0.10 0.10 0.10 0.13 0.12 0.09 0.08 0.08 0.07 0.07 0.07 0.07
0.00 0.00 0.00 0.00 0.00 0.00 0.00 0.00 0.00 0.00 0.00 0.00 0.00 0.01 0.00 0.01 0.01 0.01 0.01 0.03 0.03 0.03 0.04 0.03 0.03 0.03 0.03 0.03 0.05 0.06 0.06 0.05 0.04 0.04 0.04 0.05 0.07 0.10 0.12 0.10 0.11 0.12 0.08 0.07 0.07 0.07 0.07 0.06 0.05
0.00 0.00 0.00 0.00 0.00 0.00 0.00 0.00 0.00 0.00 0.00 0.00 0.00 0.00 0.00 0.00 0.01 0.02 0.03 0.07 0.08 0.06 0.05 0.04 0.03 0.02 0.03 0.03 0.04 0.05 0.06 0.05 0.05 0.05 0.04 0.04 0.05 0.06 0.08 0.06 0.06 0.05 0.05 0.05 0.06 0.06 0.08 0.09 0.07
0.00 0.00 0.00 0.00 0.00 0.00 0.00 0.00 0.00 0.00 0.00 0.00 0.00 0.01 0.01 0.01 0.02 0.03 0.03 0.06 0.08 0.08 0.05 0.02 0.02 0.02 0.03 0.03 0.05 0.06 0.06 0.05 0.04 0.04 0.04 0.04 0.04 0.04 0.03 0.03 0.04 0.04 0.05 0.05 0.05 0.05 0.06 0.08 0.10
0.00 0.00 0.00 0.00 0.00 0.00 0.00 0.00 0.00 0.00 0.00 0.00 0.00 0.01 0.01 0.02 0.02 0.03 0.02 0.02 0.03 0.04 0.04 0.03 0.03 0.03 0.04 0.04 0.05 0.07 0.09 0.07 0.03 0.03 0.03 0.04 0.04 0.04 0.03 0.03 0.03 0.03 0.04 0.04 0.06 0.05 0.04 0.05 0.07
0.00 0.00 0.00 0.00 0.00 0.00 0.00 0.00 0.00 0.01 0.00 0.00 0.00 0.00 0.01 0.01 0.01 0.02 0.01 0.01 0.02 0.02 0.02 0.03 0.03 0.03 0.03 0.04 0.05 0.09 0.09 0.07 0.04 0.03 0.02 0.03 0.03 0.03 0.04 0.04 0.03 0.03 0.03 0.05 0.06 0.06 0.05 0.05 0.05
0.00 0.00 0.00 0.00 0.00 0.00 0.00 0.00 0.00 0.00 0.00 0.00 0.00 0.00 0.01 0.01 0.02 0.02 0.01 0.01 0.02 0.02 0.01 0.02 0.03 0.03 0.04 0.05 0.06 0.08 0.10 0.09 0.07 0.04 0.03 0.03 0.03 0.03 0.03 0.03 0.03 0.03 0.04 0.05 0.05 0.06 0.06 0.05 0.05
0.00 0.00 0.00 0.00 0.00 0.00 0.00 0.00 0.00 0.00 0.00 0.00 0.00 0.01 0.01 0.02 0.02 0.01 0.01 0.02 0.07 0.05 0.02 0.02 0.03 0.04 0.04 0.04 0.05 0.08 0.10 0.11 0.11 0.06 0.04 0.05 0.05 0.04 0.04 0.03 0.03 0.03 0.04 0.05 0.05 0.04 0.05 0.06 0.06
0.00 0.00 0.00 0.00 0.00 0.00 0.00 0.00 0.00 0.01 0.00 0.00 0.01 0.01 0.02 0.02 0.02 0.01 0.01 0.02 0.04 0.03 0.01 0.01 0.02 0.03 0.05 0.05 0.04 0.05 0.06 0.07 0.08 0.05 0.03 0.04 0.07 0.07 0.08 0.07 0.05 0.03 0.03 0.05 0.06 0.06 0.06 0.06 0.05
0.00 0.00 0.00 0.00 0.00 0.00 0.00 0.00 0.00 0.00 0.00 0.01 0.01 0.01 0.03 0.05 0.04 0.02 0.01 0.02 0.02 0.02 0.01 0.01 0.01 0.02 0.03 0.04 0.06 0.05 0.05 0.06 0.05 0.03 0.03 0.03 0.04 0.06 0.07 0.09 0.08 0.07 0.05 0.05 0.05 0.04 0.06 0.07 0.05
0.00 0.00 0.00 0.00 0.00 0.00 0.00 0.00 0.00 0.00 0.00 0.00 0.01 0.02 0.03 0.04 0.04 0.05 0.03 0.03 0.03 0.03 0.01 0.02 0.02 0.02 0.02 0.03 0.04 0.05 0.05 0.04 0.03 0.04 0.03 0.03 0.03 0.04 0.06 0.07 0.07 0.07 0.06 0.05 0.04 0.02 0.03 0.06 0.07
0.00 0.00 0.00 0.00 0.00 0.00 0.00 0.00 0.00 0.00 0.00 0.00 0.01 0.01 0.01 0.01 0.01 0.03 0.03 0.03 0.02 0.03 0.02 0.02 0.02 0.03 0.03 0.04 0.05 0.04 0.04 0.03 0.02 0.02 0.02 0.03 0.03 0.04 0.05 0.06 0.07 0.06 0.05 0.04 0.04 0.04 0.04 0.06 0.06
0.00 0.00 0.00 0.00 0.00 0.00 0.00 0.00 0.00 0.00 0.00 0.01 0.01 0.01 0.01 0.01 0.00 0.01 0.02 0.03 0.02 0.02 0.03 0.02 0.02 0.03 0.03 0.05 0.05 0.05 0.04 0.04 0.03 0.02 0.02 0.03 0.03 0.04 0.04 0.04 0.05 0.05 0.04 0.04 0.04 0.04 0.04 0.04 0.05
0.00 0.00 0.00 0.00 0.00 0.00 0.00 0.00 0.00 0.00 0.00 0.01 0.01 0.00 0.00 0.01 0.00 0.01 0.01 0.01 0.01 0.02 0.02 0.02 0.01 0.02 0.03 0.06 0.07 0.05 0.04 0.05 0.04 0.02 0.02 0.02 0.02 0.02 0.03 0.04 0.04 0.04 0.04 0.05 0.05 0.04 0.03 0.03 0.03
0.00 0.00 0.00 0.00 0.00 0.00 0.00 0.00 0.00 0.00 0.00 0.00 0.00 0.00 0.01 0.01 0.01 0.00 0.01 0.01 0.01 0.01 0.01 0.02 0.01 0.02 0.04 0.08 0.10 0.07 0.04 0.04 0.04 0.03 0.02 0.02 0.02 0.02 0.02 0.02 0.03 0.04 0.04 0.04 0.04 0.04 0.03 0.04 0.03
0.00 0.00 0.00 0.00 0.00 0.00 0.00 0.01 0.01 0.00 0.00 0.00 0.00 0.01 0.01 0.01 0.01 0.00 0.01 0.01 0.01 0.00 0.01 0.02 0.03 0.07 0.07 0.06 0.09 0.09 0.07 0.04 0.02 0.02 0.03 0.02 0.02 0.03 0.03 0.03 0.04 0.04 0.03 0.04 0.03 0.03 0.03 0.03 0.03
0.00 0.00 0.00 0.00 0.00 0.00 0.00 0.01 0.01 0.00 0.01 0.00 0.00 0.00 0.01 0.00 0.00 0.00 0.00 0.00 0.01 0.02 0.02 0.04 0.05 0.08 0.08 0.07 0.07 0.07 0.05 0.03 0.01 0.02 0.02 0.02 0.03 0.03 0.02 0.02 0.02 0.03 0.03 0.04 0.04 0.04 0.04 0.03 0.03
0.00 0.00 0.00 0.00 0.00 0.01 0.00 0.01 0.01 0.01 0.01 0.01 0.00 0.00 0.01 0.00 0.00 0.00 0.01 0.01 0.02 0.04 0.05 0.06 0.08 0.11 0.10 0.07 0.06 0.05 0.03 0.02 0.01 0.01 0.02 0.02 0.02 0.03 0.03 0.02 0.03 0.02 0.03 0.04 0.05 0.05 0.04 0.04 0.04
0.00 0.00 0.01 0.01 0.01 0.01 0.00 0.01 0.01 0.01 0.01 0.01 0.00 0.01 0.01 0.00 0.00 0.00 0.01 0.02 0.04 0.06 0.10 0.12 0.11 0.10 0.09 0.07 0.04 0.03 0.02 0.01 0.01 0.02 0.02 0.02 0.02 0.02 0.02 0.02 0.02 0.02 0.03 0.03 0.04 0.05 0.05 0.03 0.04
0.01 0.00 0.01 0.02 0.01 0.01 0.00 0.01 0.00 0.01 0.01 0.01 0.01 0.01 0.01 0.01 0.01 0.01 0.01 0.02 0.05 0.08 0.10 0.09 0.06 0.05 0.04 0.04 0.03 0.02 0.02 0.01 0.01 0.01 0.01 0.02 0.02 0.02 0.02 0.02 0.02 0.02 0.01 0.02 0.03 0.04 0.04 0.03 0.03
0.01 0.00 0.00 0.01 0.01 0.01 0.01 0.00 0.01 0.00 0.01 0.01 0.01 0.01 0.01 0.01 0.01 0.01 0.02 0.02 0.05 0.05 0.04 0.04 0.04 0.03 0.02 0.03 0.02 0.02 0.01 0.01 0.01 0.01 0.01 0.02 0.02 0.02 0.02 0.02 0.02 0.02 0.02 0.01 0.02 0.03 0.03 0.04 0.03
0.00 0.00 0.01 0.02 0.03 0.02 0.01 0.02 0.02 0.01 0.01 0.00 0.00 0.01 0.01 0.01 0.01 0.02 0.02 0.03 0.04 0.04 0.04 0.05 0.05 0.03 0.03 0.03 0.03 0.02 0.02 0.01 0.02 0.01 0.01 0.01 0.02 0.02 0.02 0.02 0.02 0.02 0.02 0.02 0.02 0.03 0.03 0.04 0.05
0.01 0.01 0.01 0.02 0.02 0.03 0.02 0.03 0.02 0.01 0.01 0.00 0.00 0.01 0.01 0.01 0.02 0.02 0.03 0.03 0.03 0.04 0.04 0.03 0.02 0.02 0.02 0.02 0.03 0.03 0.02 0.02 0.03 0.03 0.01 0.02 0.02 0.03 0.02 0.02 0.02 0.02 0.02 0.02 0.02 0.03 0.04 0.05 0.05
0.00 0.01 0.02 0.04 0.04 0.03 0.03 0.04 0.02 0.01 0.01 0.00 0.00 0.01 0.01 0.01 0.01 0.01 0.01 0.02 0.02 0.03 0.02 0.02 0.02 0.02 0.02 0.02 0.03 0.03 0.03 0.04 0.03 0.03 0.02 0.03 0.04 0.03 0.03 0.02 0.02 0.02 0.02 0.02 0.02 0.02 0.02 0.03 0.03
MSLP
1010.82 1011.21 1011.55 1011.75 1011.76 1011.54 1011.14 1010.63 1010.11 1009.69 1009.42 1009.34 1009.42 1009.57 1009.71 1009.76 1009.66 1009.43 1009.13 1008.86 1008.73 1008.83 1009.18 1009.77 1010.51 1011.28 1011.96 1012.44 1012.68 1012.68 1012.52 1012.29 1012.10 1012.02 1012.09 1012.30 1012.60 1012.90 1013.15 1013.29 1013.33 1013.28 1013.22 1013.19 1013.25 1013.42 1013.69 1014.00 1014.32
1010.94 1011.32 1011.62 1011.77 1011.70 1011.41 1010.92 1010.33 1009.73 1009.22 1008.89 1008.74 1008.75 1008.86 1008.98 1009.03 1008.97 1008.81 1008.60 1008.44 1008.41 1008.61 1009.05 1009.72 1010.52 1011.34 1012.06 1012.58 1012.85 1012.88 1012.75 1012.54 1012.36 1012.27 1012.32 1012.48 1012.72 1012.97 1013.16 1013.25 1013.25 1013.19 1013.13 1013.12 1013.21 1013.41 1013.70 1014.04 1014.37
1011.14 1011.48 1011.72 1011.79 1011.64 1011.27 1010.71 1010.06 1009.42 1008.87 1008.49 1008.30 1008.28 1008.35 1008.45 1008.51 1008.47 1008.36 1008.22 1008.13 1008.19 1008.46 1008.97 1009.68 1010.52 1011.36 1012.10 1012.64 1012.95 1013.03 1012.93 1012.76 1012.59 1012.50 1012.53 1012.65 1012.83 1013.01 1013.13 1013.18 1013.16 1013.10 1013.06 1013.08 1013.21 1013.44 1013.76 1014.10 1014.42
1011.37 1011.66 1011.82 1011.80 1011.56 1011.12 1010.53 1009.86 1009.20 1008.66 1008.28 1008.08 1008.04 1008.10 1008.19 1008.24 1008.22 1008.13 1008.03 1008.00 1008.11 1008.42 1008.95 1009.67 1010.51 1011.35 1012.09 1012.65 1012.98 1013.10 1013.05 1012.92 1012.78 1012.70 1012.71 1012.79 1012.92 1013.03 1013.11 1013.12 1013.09 1013.04 1013.03 1013.09 1013.26 1013.52 1013.84 1014.18 1014.47
1011.57 1011.78 1011.86 1011.75 1011.45 1010.97 1010.36 1009.70 1009.08 1008.57 1008.23 1008.06 1008.03 1008.09 1008.17 1008.21 1008.20 1008.13 1008.05 1008.04 1008.17 1008.49 1009.01 1009.71 1010.51 1011.32 1012.03 1012.59 1012.94 1013.09 1013.10 1013.02 1012.92 1012.86 1012.86 1012.92 1013.00 1013.07 1013.10 1013.09 1013.05 1013.02 1013.04 1013.14 1013.34 1013.62 1013.94 1014.25 1014.49
1011.68 1011.82 1011.82 1011.65 1011.30 1010.80 1010.21 1009.59 1009.03 1008.59 1008.30 1008.17 1008.16 1008.23 1008.31 1008.36 1008.34 1008.28 1008.22 1008.22 1008.35 1008.65 1009.13 1009.78 1010.52 1011.27 1011.94 1012.47 1012.83 1013.02 1013.08 1013.05 1013.01 1012.98 1012.99 1013.03 1013.08 1013.12 1013.12 1013.10 1013.06 1013.04 1013.09 1013.21 1013.42 1013.70 1014.01 1014.28 1014.47
1011.70 1011.77 1011.71 1011.48 1011.11 1010.62 1010.06 1009.50 1009.01 1008.64 1008.41 1008.32 1008.34 1008.42 1008.51 1008.55 1008.55 1008.50 1008.45 1008.46 1008.58 1008.85 1009.29 1009.86 1010.53 1011.20 1011.82 1012.32 1012.67 1012.89 1013.00 1013.03 1013.04 1013.06 1013.09 1013.13 1013.17 1013.18 1013.16 1013.12 1013.08 1013.07 1013.13 1013.26 1013.48 1013.75 1014.02 1014.25 1014.39
1011.64 1011.65 1011.54 1011.28 1010.89 1010.42 1009.91 1009.42 1008.99 1008.68 1008.50 1008.44 1008.47 1008.55 1008.63 1008.68 1008.69 1008.66 1008.63 1008.66 1008.79 1009.04 1009.43 1009.94 1010.52 1011.12 1011.67 1012.14 1012.49 1012.73 1012.88 1012.97 1013.04 1013.10 1013.16 1013.21 1013.24 1013.24 1013.21 1013.15 1013.10 1013.09 1013.15 1013.28 1013.48 1013.72 1013.96 1014.15 1014.24
1011.54 1011.50 1011.34 1011.07 1010.69 1010.24 1009.78 1009.33 1008.96 1008.68 1008.52 1008.46 1008.47 1008.53 1008.60 1008.65 1008.68 1008.68 1008.70 1008.76 1008.91 1009.16 1009.53 1009.98 1010.50 1011.03 1011.53 1011.95 1012.29 1012.55 1012.74 1012.89 1013.01 1013.12 1013.21 1013.28 1013.31 1013.30 1013.25 1013.18 1013.12 1013.09 1013.13 1013.25 1013.43 1013.64 1013.84 1013.99 1014.06
1011.43 1011.35 1011.16 1010.87 1010.50 1010.08 1009.65 1009.24 1008.89 1008.62 1008.44 1008.35 1008.32 1008.35 1008.39 1008.44 1008.49 1008.54 1008.62 1008.74 1008.93 1009.20 1009.57 1010.00 1010.47 1010.95 1011.39 1011.79 1012.12 1012.39 1012.62 1012.81 1012.98 1013.13 1013.25 1013.34 1013.38 1013.36 1013.30 1013.21 1013.13 1013.09 1013.11 1013.20 1013.34 1013.52 1013.69 1013.81 1013.86
1011.33 1011.21 1010.99 1010.69 1010.34 1009.94 1009.54 1009.14 1008.79 1008.50 1008.27 1008.12 1008.04 1008.01 1008.02 1008.07 1008.15 1008.25 1008.39 1008.59 1008.85 1009.17 1009.55 1009.98 1010.43 1010.88 1011.30 1011.67 1012.00 1012.28 1012.53 1012.76 1012.96 1013.15 1013.30 1013.41 1013.45 1013.44 1013.37 1013.27 1013.17 1013.10 1013.09 1013.15 1013.27 1013.41 1013.55 1013.65 1013.68
1011.24 1011.07 1010.83 1010.52 1010.18 1009.80 1009.41 1009.03 1008.65 1008.32 1008.04 1007.81 1007.66 1007.57 1007.55 1007.60 1007.70 1007.86 1008.09 1008.36 1008.70 1009.09 1009.51 1009.96 1010.41 1010.85 1011.25 1011.61 1011.94 1012.23 1012.50 1012.75 1012.99 1013.20 1013.37 1013.49 1013.55 1013.53 1013.46 1013.36 1013.25 1013.16 1013.12 1013.15 1013.23 1013.34 1013.45 1013.53 1013.55
1011.11 1010.90 1010.63 1010.32 1009.99 1009.63 1009.26 1008.87 1008.48 1008.10 1007.75 1007.46 1007.24 1007.10 1007.05 1007.09 1007.23 1007.46 1007.75 1008.12 1008.53 1008.99 1009.47 1009.95 1010.41 1010.86 1011.26 1011.63 1011.96 1012.26 1012.54 1012.81 1013.06 1013.29 1013.48 1013.61 1013.67 1013.67 1013.61 1013.50 1013.38 1013.28 1013.22 1013.21 1013.25 1013.33 1013.41 1013.47 1013.48
1010.93 1010.66 1010.37 1010.06 1009.74 1009.40 1009.04 1008.65 1008.25 1007.84 1007.44 1007.10 1006.82 1006.65 1006.58 1006.64 1006.81 1007.09 1007.46 1007.90 1008.39 1008.91 1009.43 1009.95 1010.45 1010.91 1011.33 1011.71 1012.05 1012.36 1012.66 1012.94 1013.19 1013.42 1013.62 1013.76 1013.83 1013.84 1013.79 1013.69 1013.57 1013.46 1013.38 1013.34 1013.35 1013.38 1013.42 1013.45 1013.44
1010.65 1010.34 1010.03 1009.72 1009.42 1009.10 1008.76 1008.38 1007.97 1007.54 1007.11 1006.73 1006.43 1006.24 1006.18 1006.26 1006.47 1006.81 1007.23 1007.73 1008.28 1008.84 1009.41 1009.97 1010.49 1010.98 1011.42 1011.82 1012.19 1012.52 1012.82 1013.10 1013.36 1013.59 1013.78 1013.92 1014.00 1014.02 1013.98 1013.90 1013.79 1013.68 1013.59 1013.52 1013.48 1013.47 1013.47 1013.46 1013.43
1010.28 1009.94 1009.62 1009.32 1009.04 1008.75 1008.43 1008.06 1007.65 1007.20 1006.76 1006.37 1006.06 1005.88 1005.84 1005.95 1006.20 1006.58 1007.06 1007.61 1008.19 1008.79 1009.39 1009.97 1010.52 1011.04 1011.51 1011.94 1012.33 1012.68 1012.99 1013.27 1013.52 1013.74 1013.92 1014.06 1014.15 1014.18 1014.16 1014.10 1014.00 1013.90 1013.79 1013.70 1013.63 1013.58 1013.53 1013.48 1013.41
1009.84 1009.50 1009.19 1008.92 1008.67 1008.40 1008.09 1007.72 1007.30 1006.84 1006.38 1005.98 1005.68 1005.51 1005.50 1005.65 1005.95 1006.38 1006.90 1007.48 1008.09 1008.72 1009.33 1009.93 1010.51 1011.05 1011.55 1012.02 1012.43 1012.80 1013.13 1013.41 1013.65 1013.85 1014.02 1014.14 1014.23 1014.28 1014.28 1014.24 1014.17 1014.07 1013.97 1013.87 1013.77 1013.68 1013.59 1013.49 1013.38
1009.39 1009.06 1008.79 1008.56 1008.34 1008.09 1007.78 1007.39 1006.94 1006.44 1005.96 1005.54 1005.24 1005.08 1005.11 1005.30 1005.65 1006.13 1006.69 1007.30 1007.93 1008.57 1009.20 1009.81 1010.41 1010.97 1011.51 1012.01 1012.45 1012.85 1013.19 1013.47 1013.69 1013.88 1014.03 1014.14 1014.22 1014.28 1014.30 1014.29 1014.25 1014.18 1014.09 1013.98 1013.87 1013.75 1013.62 1013.49 1013.35
1008.95 1008.68 1008.47 1008.29 1008.10 1007.86 1007.53 1007.09 1006.58 1006.02 1005.47 1005.01 1004.68 1004.54 1004.58 1004.82 1005.22 1005.75 1006.35 1007.00 1007.66 1008.32 1008.96 1009.59 1010.20 1010.79 1011.36 1011.89 1012.37 1012.79 1013.13 1013.42 1013.63 1013.80 1013.93 1014.03 1014.11 1014.17 1014.22 1014.24 1014.23 1014.20 1014.14 1014.05 1013.93 1013.80 1013.65 1013.50 1013.33
1008.54 1008.36 1008.24 1008.13 1007.97 1007.72 1007.34 1006.83 1006.21 1005.55 1004.91 1004.36 1003.99 1003.82 1003.88 1004.15 1004.60 1005.19 1005.85 1006.54 1007.24 1007.93 1008.60 1009.25 1009.88 1010.50 1011.10 1011.66 1012.17 1012.61 1012.97 1013.25 1013.46 1013.61 1013.72 1013.81 1013.89 1013.96 1014.03 1014.09 1014.13 1014.14 1014.12 1014.06 1013.96 1013.83 1013.68 1013.52 1013.34
1008.14 1008.08 1008.07 1008.03 1007.91 1007.64 1007.20 1006.58 1005.84 1005.03 1004.25 1003.59 1003.14 1002.93 1002.98 1003.28 1003.78 1004.42 1005.15 1005.91 1006.67 1007.41 1008.12 1008.80 1009.47 1010.12 1010.75 1011.34 1011.87 1012.33 1012.71 1013.00 1013.20 1013.34 1013.44 1013.52 1013.59 1013.68 1013.77 1013.87 1013.95 1014.02 1014.04 1014.02 1013.95 1013.85 1013.71 1013.54 1013.36
1007.73 1007.80 1007.90 1007.94 1007.85 1007.56 1007.04 1006.31 1005.41 1004.45 1003.51 1002.73 1002.17 1001.89 1001.92 1002.23 1002.78 1003.49 1004.30 1005.14 1005.98 1006.78 1007.55 1008.29 1008.99 1009.68 1010.34 1010.95 1011.51 1011.99 1012.39 1012.68 1012.89 1013.02 1013.11 1013.19 1013.26 1013.36 1013.47 1013.60 1013.73 1013.83 1013.91 1013.93 1013.90 1013.83 1013.71 1013.56 1013.39
1007.25 1007.44 1007.65 1007.76 1007.70 1007.39 1006.81 1005.97 1004.94 1003.82 1002.74 1001.82 1001.15 1000.81 1000.81 1001.12 1001.71 1002.48 1003.37 1004.31 1005.23 1006.12 1006.96 1007.75 1008.51 1009.23 1009.92 1010.56 1011.14 1011.64 1012.05 1012.35 1012.56 1012.70 1012.79 1012.86 1012.94 1013.03 1013.16 1013.31 1013.46 1013.61 1013.72 1013.78 1013.79 1013.75 1013.65 1013.52 1013.35
1006.66 1006.96 1007.26 1007.44 1007.41 1007.09 1006.46 1005.54 1004.41 1003.18 1001.99 1000.96 1000.21 999.80 999.76 1000.07 1000.68 1001.51 1002.47 1003.49 1004.51 1005.48 1006.40 1007.25 1008.06 1008.82 1009.54 1010.20 1010.80 1011.31 1011.73 1012.05 1012.27 1012.41 1012.50 1012.57 1012.64 1012.73 1012.85 1013.01 1013.17 1013.33 1013.47 1013.56 1013.60 1013.58 1013.50 1013.38 1013.22
1005.98 1006.35 1006.71 1006.93 1006.93 1006.62 1005.98 1005.04 1003.88 1002.59 1001.34 1000.26 999.45 999.00 998.93 999.23 999.85 1000.72 1001.73 1002.81 1003.90 1004.94 1005.93 1006.85 1007.70 1008.49 1009.23 1009.91 1010.51 1011.03 1011.46 1011.79 1012.02 1012.16 1012.25 1012.32 1012.38 1012.45 1012.56 1012.70 1012.85 1013.01 1013.15 1013.25 1013.29 1013.28 1013.22 1013.11 1012.96
1005.24 1005.64 1006.02 1006.27 1006.30 1006.02 1005.42 1004.51 1003.38 1002.13 1000.90 999.83 999.02 998.55 998.46 998.75 999.36 1000.22 1001.25 1002.36 1003.49 1004.58 1005.61 1006.57 1007.45 1008.26 1009.01 1009.69 1010.30 1010.82 1011.25 1011.57 1011.80 1011.95 1012.04 1012.10 1012.14 1012.19 1012.27 1012.37 1012.50 1012.63 1012.75 1012.83 1012.88 1012.87 1012.80 1012.69 1012.54
1004.53 1004.91 1005.28 1005.53 1005.58 1005.35 1004.82 1004.02 1003.01 1001.87 1000.75 999.75 998.99 998.55 998.45 998.71 999.28 1000.11 1001.11 1002.21 1003.33 1004.43 1005.47 1006.44 1007.33 1008.14 1008.88 1009.55 1010.14 1010.65 1011.07 1011.39 1011.62 1011.76 1011.84 1011.88 1011.90 1011.93 1011.96 1012.03 1012.10 1012.19 1012.28 1012.34 1012.37 1012.35 1012.28 1012.16 1012.01
1003.91 1004.25 1004.56 1004.79 1004.85 1004.68 1004.27 1003.63 1002.80 1001.86 1000.91 1000.06 999.41 999.02 998.93 999.16 999.67 1000.43 1001.35 1002.38 1003.45 1004.51 1005.52 1006.47 1007.34 1008.13 1008.85 1009.48 1010.04 1010.52 1010.91 1011.21 1011.42 1011.56 1011.63 1011.65 1011.65 1011.64 1011.63 1011.65 1011.68 1011.72 1011.77 1011.79 1011.79 1011.76 1011.68 1011.56 1011.40
1003.47 1003.72 1003.95 1004.13 1004.19 1004.09 1003.82 1003.37 1002.77 1002.08 1001.38 1000.74 1000.24 999.93 999.87 1000.05 1000.49 1001.14 1001.95 1002.87 1003.84 1004.81 1005.76 1006.65 1007.47 1008.21 1008.88 1009.46 1009.97 1010.40 1010.75 1011.02 1011.20 1011.32 1011.37 1011.38 1011.35 1011.32 1011.28 1011.25 1011.24 1011.24 1011.24 1011.23 1011.21 1011.15 1011.06 1010.94 1010.77
1003.21 1003.35 1003.48 1003.58 1003.63 1003.59 1003.46 1003.22 1002.89 1002.49 1002.07 1001.67 1001.34 1001.15 1001.12 1001.27 1001.62 1002.15 1002.81 1003.59 1004.43 1005.29 1006.14 1006.95 1007.69 1008.37 1008.96 1009.48 1009.92 1010.29 1010.58 1010.80 1010.95 1011.03 1011.06 1011.05 1011.01 1010.96 1010.90 1010.84 1010.79 1010.76 1010.73 1010.69 1010.64 1010.57 1010.47 1010.34 1010.17
Thickness
5801 5806 5809 5807 5801 5802 5796 5801 5807 5807 5809 5814 5815 5812 5807 5803 5797 5787 5804 5812 5810 5807 5800 5792 5787 5785 5782 5780 5778 5776 5774 5772 5770 5768 5766 5764 5763 5761 5760 5759 5758 5757 5756 5755 5754 5754 5753 5753 5753
5807 5808 5806 5805 5800 5791 5791 5803 5803 5806 5811 5815 5813 5810 5805 5802 5805 5803 5805 5807 5807 5804 5798 5791 5784 5782 5779 5777 5775 5773 5771 5769 5767 5765 5763 5761 5759 5758 5756 5756 5755 5754 5752 5752 5751 5751 5750 5749 5749
5807 5807 5804 5805 5799 5793 5792 5802 5805 5809 5814 5812 5808 5809 5804 5797 5802 5802 5805 5805 5804 5800 5795 5787 5781 5778 5776 5774 5772 5770 5768 5766 5763 5761 5760 5758 5756 5754 5753 5752 5751 5751 5750 5749 5748 5748 5747 5747 5746
5806 5804 5805 5801 5793 5799 5802 5806 5809 5807 5810 5812 5808 5801 5802 5802 5803 5805 5804 5804 5801 5798 5793 5784 5779 5775 5773 5770 5768 5766 5764 5762 5760 5758 5756 5754 5752 5751 5750 5749 5748 5747 5746 5746 5746 5745 5744 5744 5744
5805 5804 5798 5796 5796 5803 5809 5811 5811 5806 5805 5807 5806 5797 5794 5800 5805 5804 5801 5800 5797 5794 5791 5783 5775 5772 5769 5767 5765 5763 5760 5758 5756 5754 5752 5750 5749 5747 5746 5745 5744 5743 5743 5742 5742 5741 5741 5741 5740
5801 5804 5793 5788 5794 5802 5809 5812 5811 5807 5806 5806 5804 5796 5791 5799 5799 5798 5799 5796 5795 5791 5788 5780 5773 5769 5766 5764 5762 5759 5757 5755 5752 5750 5748 5747 5745 5744 5743 5742 5741 5740 5739 5738 5738 5738 5738 5737 5737
5796 5797 5791 5793 5792 5797 5804 5813 5808 5806 5804 5805 5808 5796 5791 5794 5796 5796 5795 5794 5791 5787 5784 5779 5775 5769 5763 5761 5758 5756 5753 5751 5749 5747 5745 5743 5742 5740 5739 5738 5737 5736 5735 5735 5734 5734 5734 5733 5733
5802 5799 5793 5794 5791 5794 5807 5810 5811 5808 5804 5812 5810 5796 5790 5792 5795 5794 5791 5789 5787 5784 5781 5777 5774 5769 5765 5760 5755 5752 5749 5747 5745 5743 5742 5741 5739 5738 5736 5735 5733 5732 5731 5731 5731 5730 5730 5730 5730
5800 5791 5788 5793 5792 5797 5807 5805 5809 5814 5808 5806 5807 5804 5801 5798 5794 5789 5784 5782 5780 5778 5776 5774 5772 5768 5765 5761 5754 5750 5746 5744 5743 5741 5739 5739 5740 5739 5736 5733 5730 5729 5728 5727 5727 5726 5726 5726 5726
5794 5786 5792 5800 5803 5802 5804 5804 5805 5804 5799 5798 5797 5798 5798 5794 5789 5785 5781 5777 5775 5773 5772 5772 5769 5765 5762 5758 5753 5750 5748 5744 5743 5741 5739 5739 5738 5736 5734 5730 5727 5726 5725 5724 5723 5723 5723 5724 5726
5793 5789 5797 5801 5805 5805 5803 5803 5807 5801 5794 5799 5796 5793 5791 5789 5786 5783 5781 5778 5775 5772 5769 5768 5765 5761 5758 5755 5752 5749 5746 5743 5741 5738 5736 5735 5735 5733 5732 5730 5728 5725 5724 5723 5722 5722 5723 5723 5723
5789 5793 5796 5800 5804 5803 5801 5802 5800 5799 5800 5807 5806 5799 5791 5786 5784 5782 5778 5776 5773 5769 5766 5765 5761 5757 5754 5751 5749 5746 5744 5741 5739 5735 5733 5732 5731 5729 5728 5726 5726 5724 5723 5721 5720 5719 5719 5718 5718
5785 5791 5796 5800 5802 5803 5801 5798 5797 5797 5803 5805 5802 5796 5790 5787 5783 5782 5779 5775 5771 5767 5764 5761 5758 5754 5749 5746 5744 5743 5740 5738 5735 5731 5729 5727 5727 5726 5724 5722 5719 5720 5719 5718 5716 5716 5714 5714 5714
5789 5791 5794 5798 5799 5800 5795 5796 5794 5794 5800 5797 5793 5790 5788 5785 5782 5779 5775 5771 5768 5764 5760 5758 5754 5750 5746 5743 5740 5738 5737 5733 5731 5729 5726 5723 5723 5721 5719 5717 5715 5715 5713 5713 5712 5711 5710 5710 5710
5787 5782 5788 5795 5796 5797 5794 5785 5790 5797 5796 5790 5787 5786 5784 5783 5780 5776 5773 5769 5766 5761 5758 5754 5751 5747 5743 5740 5737 5735 5733 5730 5728 5725 5722 5719 5718 5716 5715 5713 5711 5710 5708 5707 5707 5706 5706 5705 5705
5781 5776 5775 5790 5794 5794 5784 5776 5792 5797 5791 5785 5784 5782 5780 5778 5778 5775 5772 5767 5764 5759 5755 5751 5750 5744 5739 5736 5733 5732 5729 5726 5724 5721 5718 5715 5713 5711 5710 5709 5708 5704 5703 5703 5702 5702 5702 5701 5700
5773 5769 5773 5783 5792 5790 5783 5778 5789 5793 5788 5782 5781 5780 5778 5775 5774 5772 5770 5765 5761 5756 5751 5747 5744 5740 5736 5732 5729 5727 5723 5720 5719 5717 5715 5712 5709 5707 5706 5705 5701 5700 5699 5698 5698 5698 5697 5695 5694
5766 5771 5773 5776 5787 5784 5779 5779 5785 5789 5786 5782 5781 5778 5776 5773 5771 5770 5767 5763 5758 5753 5748 5744 5740 5736 5732 5729 5725 5722 5720 5718 5715 5713 5710 5707 5706 5704 5702 5701 5697 5697 5695 5693 5691 5689 5689 5688 5688
5773 5770 5770 5777 5786 5779 5775 5776 5782 5786 5783 5781 5779 5777 5774 5772 5773 5770 5765 5760 5754 5749 5744 5740 5736 5732 5728 5725 5721 5718 5716 5714 5712 5711 5707 5704 5702 5700 5698 5698 5694 5692 5690 5687 5686 5685 5684 5683 5683
5766 5763 5767 5775 5780 5774 5772 5774 5783 5785 5782 5782 5779 5776 5774 5772 5769 5765 5761 5757 5752 5746 5742 5738 5733 5730 5726 5722 5718 5715 5713 5711 5709 5707 5703 5701 5699 5697 5697 5693 5692 5689 5685 5682 5680 5679 5679 5678 5678
5760 5762 5766 5767 5772 5774 5768 5767 5776 5781 5782 5781 5780 5778 5776 5771 5766 5762 5758 5754 5751 5745 5741 5738 5732 5728 5724 5719 5716 5712 5709 5707 5705 5702 5701 5699 5696 5694 5692 5690 5687 5684 5683 5680 5677 5675 5673 5672 5672
5756 5770 5769 5766 5762 5764 5764 5754 5771 5775 5773 5772 5772 5772 5771 5769 5766 5762 5757 5752 5749 5745 5741 5735 5730 5725 5720 5717 5713 5709 5706 5703 5701 5699 5698 5696 5693 5691 5688 5686 5683 5680 5679 5676 5674 5673 5670 5667 5666
5763 5771 5768 5766 5762 5759 5765 5755 5768 5774 5767 5768 5769 5769 5769 5768 5765 5760 5756 5752 5749 5745 5740 5734 5727 5721 5718 5714 5711 5707 5704 5702 5700 5697 5694 5692 5690 5687 5685 5682 5679 5676 5675 5672 5670 5667 5666 5665 5663
5765 5762 5762 5763 5762 5745 5760 5753 5758 5769 5766 5767 5768 5766 5765 5764 5762 5759 5756 5752 5747 5743 5738 5732 5725 5719 5716 5712 5709 5704 5701 5698 5695 5693 5691 5689 5688 5684 5682 5678 5676 5673 5671 5668 5665 5663 5662 5660 5657
5756 5748 5740 5738 5741 5748 5764 5754 5757 5769 5771 5768 5766 5763 5761 5760 5759 5755 5752 5748 5743 5739 5735 5730 5723 5717 5714 5710 5706 5703 5699 5696 5693 5691 5689 5687 5685 5682 5678 5676 5672 5670 5667 5665 5662 5659 5658 5656 5652
5753 5751 5736 5728 5737 5752 5757 5752 5762 5770 5770 5769 5767 5764 5759 5757 5756 5752 5749 5745 5741 5737 5732 5727 5721 5716 5712 5708 5704 5701 5698 5696 5694 5689 5688 5685 5683 5680 5676 5672 5669 5667 5664 5662 5659 5658 5655 5652 5649
5749 5750 5762 5748 5748 5742 5752 5758 5760 5763 5760 5761 5761 5758 5755 5753 5751 5749 5746 5743 5740 5735 5730 5726 5720 5714 5710 5706 5702 5699 5696 5693 5691 5687 5685 5684 5680 5677 5673 5669 5666 5664 5661 5658 5655 5653 5650 5647 5646
5760 5757 5748 5740 5726 5728 5743 5748 5751 5749 5751 5754 5754 5752 5750 5749 5748 5746 5743 5740 5737 5733 5728 5724 5719 5713 5709 5705 5700 5698 5693 5690 5688 5686 5682 5680 5677 5673 5669 5666 5663 5660 5657 5654 5651 5649 5647 5643 5641
5744 5744 5744 5746 5744 5731 5729 5740 5756 5752 5751 5750 5750 5749 5747 5745 5743 5740 5738 5736 5733 5730 5726 5721 5716 5711 5707 5703 5699 5695 5691 5688 5685 5682 5680 5677 5674 5670 5666 5663 5660 5656 5653 5650 5647 5645 5642 5639 5637
5751 5747 5742 5727 5729 5735 5732 5733 5751 5752 5750 5747 5746 5744 5743 5741 5740 5737 5734 5731 5728 5725 5722 5717 5713 5709 5705 5701 5697 5693 5690 5686 5682 5679 5677 5674 5671 5668 5664 5660 5657 5653 5650 5647 5644 5641 5638 5635 5633